User: anonymous
Location: Space Photons Observatory
(33.2428°N, 111.5467°W)
Time: 00:04:51
(UTC-07:00)
Language:

RESURS DK-1 - Orbit

View from above orbital plane
View from above orbital plane
View from above satellite
View from above satellite

Ground track
Ground track

The orbit data is extracted from the following two-line orbital elements,

1 29228U 06021A   14109.18575478  .00001244  00000-0  10581-3 0  7685
2 29228 069.9368 153.9119 0006235 297.0633 062.9865 15.00617812434728
Epoch (UTC): 19 April 2014 04:27:29
Eccentricity: 0.0006235
inclination: 69.9368°
perigee height: 560 km
apogee height: 569 km
right ascension of ascending node: 153.9119°
argument of perigee: 297.0633°
revolutions per day: 15.00617812
mean anomaly at epoch: 62.9865°
orbit number at epoch: 43472

The dashed part of the orbit path shows where the satellite is in the earth's shadow,  

DLR